• în România
  • Lista ţărilor
  • Pe 7 zile
  • Temperatura apei
  • Hartă satelitară
  • Meteo pe hartă
  • Widget-uri
  • user-avatar
    Intrare

    Meteo pe oră la Ganja

    Astăzi, 18 Ianuarie, Miercuri

    Timp Temperatura Precipitaţii Vânt Presiune Umiditate
    00:00 +2°C° 0 mm 1 m/s 730 mmHg 82%
    01:00 +2°C° 0 mm 1 m/s 730 mmHg 84%
    02:00 +1°C° 0 mm 1 m/s 730 mmHg 85%
    03:00 +1°C° 0 mm 1 m/s 730 mmHg 86%
    04:00 +1°C° 0 mm 1 m/s 730 mmHg 87%
    05:00 +1°C° 0 mm 1 m/s 730 mmHg 88%
    06:00 0°C° 0 mm 1 m/s 730 mmHg 89%
    07:00 +2°C° 0 mm 1 m/s 730 mmHg 86%
    08:00 +3°C° 0 mm 1 m/s 730 mmHg 84%
    09:00 +4°C° 0 mm 1 m/s 731 mmHg 81%
    10:00 +5°C° 0 mm 1 m/s 730 mmHg 78%
    11:00 +6°C° 0 mm 1 m/s 730 mmHg 75%
    12:00 +6°C° 0 mm 2 m/s 730 mmHg 72%
    13:00 +6°C° 0 mm 2 m/s 730 mmHg 73%
    14:00 +6°C° 0 mm 2 m/s 729 mmHg 73%
    15:00 +6°C° 0 mm 2 m/s 729 mmHg 73%
    16:00 +6°C° 0 mm 1 m/s 729 mmHg 79%
    17:00 +5°C° 0 mm 1 m/s 729 mmHg 86%
    18:00 +3°C° 0 mm 1 m/s 730 mmHg 92%
    19:00 +3°C° 0 mm 1 m/s 730 mmHg 93%
    20:00 +2°C° 0 mm 1 m/s 730 mmHg 94%
    21:00 +2°C° 0 mm 1 m/s 730 mmHg 96%
    22:00 +1°C° 0 mm 0 m/s 730 mmHg 96%
    23:00 0°C° 0 mm 0 m/s 730 mmHg 97%

    Mâine, 19 Ianuarie, Joi

    Timp Temperatura Precipitaţii Vânt Presiune Umiditate
    00:00 0°C° 0 mm 0 m/s 729 mmHg 97%
    01:00 0°C° 0 mm 0 m/s 729 mmHg 97%
    02:00 0°C° 0 mm 0 m/s 730 mmHg 98%
    03:00 0°C° 0 mm 0 m/s 730 mmHg 98%
    04:00 0°C° 0 mm 0 m/s 729 mmHg 97%
    05:00 0°C° 0 mm 0 m/s 729 mmHg 97%
    06:00 0°C° 0 mm 0 m/s 729 mmHg 97%
    07:00 +1°C° 0 mm 0 m/s 730 mmHg 94%
    08:00 +2°C° 0 mm 0 m/s 730 mmHg 91%
    09:00 +4°C° 0 mm 1 m/s 730 mmHg 89%
    10:00 +5°C° 0 mm 1 m/s 730 mmHg 84%
    11:00 +6°C° 0 mm 1 m/s 730 mmHg 78%
    12:00 +6°C° 0 mm 1 m/s 729 mmHg 73%
    13:00 +6°C° 0,1 mm 1 m/s 729 mmHg 73%
    14:00 +6°C° 0,1 mm 1 m/s 729 mmHg 73%
    15:00 +6°C° 0,1 mm 1 m/s 729 mmHg 72%
    16:00 +5°C° 0,1 mm 1 m/s 729 mmHg 77%
    17:00 +4°C° 0,1 mm 1 m/s 730 mmHg 82%
    18:00 +2°C° 0,1 mm 0 m/s 730 mmHg 87%
    19:00 +3°C° 0,1 mm 1 m/s 730 mmHg 89%
    20:00 +3°C° 0,1 mm 1 m/s 730 mmHg 90%
    21:00 +2°C° 0,1 mm 1 m/s 730 mmHg 92%
    22:00 +2°C° 0 mm 1 m/s 730 mmHg 93%
    23:00 +2°C° 0 mm 1 m/s 731 mmHg 94%

    Poimâine, 20 Ianuarie, Vineri

    Timp Temperatura Precipitaţii Vânt Presiune Umiditate
    00:00 +2°C° 0 mm 1 m/s 731 mmHg 96%
    01:00 +1°C° 0,1 mm 1 m/s 731 mmHg 96%
    02:00 0°C° 0,1 mm 0 m/s 731 mmHg 97%
    03:00 0°C° 0,1 mm 0 m/s 731 mmHg 98%
    04:00 0°C° 0,1 mm 0 m/s 731 mmHg 98%
    05:00 0°C° 0,1 mm 0 m/s 731 mmHg 98%
    06:00 0°C° 0,1 mm 0 m/s 731 mmHg 98%
    07:00 +1°C° 0,1 mm 0 m/s 731 mmHg 96%
    08:00 +1°C° 0,1 mm 0 m/s 732 mmHg 93%
    09:00 +2°C° 0,1 mm 0 m/s 732 mmHg 91%
    10:00 +4°C° 0,1 mm 1 m/s 732 mmHg 86%
    11:00 +4°C° 0,1 mm 1 m/s 732 mmHg 82%
    12:00 +5°C° 0,1 mm 1 m/s 732 mmHg 77%
    13:00 +5°C° 0,1 mm 1 m/s 731 mmHg 76%
    14:00 +5°C° 0,1 mm 1 m/s 731 mmHg 75%
    15:00 +5°C° 0,1 mm 1 m/s 731 mmHg 73%
    16:00 +4°C° 0 mm 1 m/s 731 mmHg 78%
    17:00 +3°C° 0 mm 1 m/s 731 mmHg 83%
    18:00 0°C° 0 mm 0 m/s 731 mmHg 87%
    19:00 0°C° 0 mm 0 m/s 731 mmHg 89%
    20:00 -1°C° 0 mm 0 m/s 731 mmHg 90%
    21:00 -1°C° 0 mm 0 m/s 731 mmHg 91%
    22:00 -2°C° 0 mm 0 m/s 731 mmHg 92%
    23:00 -2°C° 0 mm 0 m/s 731 mmHg 93%

    21 Ianuarie, Sâmbătă

    Timp Temperatura Precipitaţii Vânt Presiune Umiditate
    00:00 -2°C° 0 mm 0 m/s 731 mmHg 93%
    01:00 -3°C° 0 mm 0 m/s 731 mmHg 93%
    02:00 -3°C° 0 mm 0 m/s 731 mmHg 93%
    03:00 -3°C° 0 mm 0 m/s 730 mmHg 93%
    04:00 -3°C° 0 mm 0 m/s 730 mmHg 92%
    05:00 -2°C° 0 mm 1 m/s 730 mmHg 92%
    06:00 -2°C° 0 mm 1 m/s 730 mmHg 91%
    07:00 -1°C° 0 mm 1 m/s 730 mmHg 86%
    08:00 +1°C° 0 mm 1 m/s 731 mmHg 80%
    09:00 +3°C° 0 mm 1 m/s 731 mmHg 75%
    10:00 +4°C° 0 mm 1 m/s 731 mmHg 71%
    11:00 +4°C° 0 mm 2 m/s 730 mmHg 66%
    12:00 +5°C° 0 mm 2 m/s 730 mmHg 62%
    13:00 +5°C° 0 mm 2 m/s 729 mmHg 62%
    14:00 +5°C° 0 mm 2 m/s 729 mmHg 62%
    15:00 +5°C° 0 mm 2 m/s 728 mmHg 61%
    16:00 +3°C° 0 mm 2 m/s 728 mmHg 67%
    17:00 +2°C° 0 mm 1 m/s 728 mmHg 72%
    18:00 0°C° 0 mm 1 m/s 728 mmHg 77%
    19:00 0°C° 0 mm 1 m/s 729 mmHg 77%
    20:00 0°C° 0 mm 1 m/s 729 mmHg 78%
    21:00 0°C° 0 mm 1 m/s 729 mmHg 78%
    22:00 0°C° 0 mm 1 m/s 729 mmHg 78%
    23:00 -2°C° 0 mm 2 m/s 729 mmHg 77%

    22 Ianuarie, Duminică

    Timp Temperatura Precipitaţii Vânt Presiune Umiditate
    00:00 -2°C° 0 mm 2 m/s 729 mmHg 77%
    01:00 -2°C° 0 mm 2 m/s 729 mmHg 76%
    02:00 -2°C° 0 mm 3 m/s 729 mmHg 76%
    03:00 -4°C° 0 mm 3 m/s 729 mmHg 75%
    04:00 -4°C° 0 mm 3 m/s 729 mmHg 74%
    05:00 -4°C° 0 mm 3 m/s 728 mmHg 73%
    06:00 -4°C° 0 mm 3 m/s 728 mmHg 71%
    07:00 -2°C° 0 mm 3 m/s 729 mmHg 68%
    08:00 -2°C° 0 mm 4 m/s 729 mmHg 64%
    09:00 -1°C° 0 mm 4 m/s 729 mmHg 61%
    10:00 0°C° 0 mm 4 m/s 729 mmHg 57%
    11:00 +2°C° 0 mm 5 m/s 728 mmHg 53%
    12:00 +3°C° 0 mm 5 m/s 728 mmHg 50%
    13:00 +3°C° 0 mm 5 m/s 728 mmHg 50%
    14:00 +3°C° 0 mm 5 m/s 727 mmHg 51%
    15:00 +3°C° 0 mm 5 m/s 727 mmHg 51%
    16:00 +3°C° 0,1 mm 4 m/s 728 mmHg 56%
    17:00 +1°C° 0,1 mm 3 m/s 728 mmHg 60%
    18:00 +1°C° 0,1 mm 2 m/s 729 mmHg 64%
    19:00 +1°C° 0 mm 2 m/s 729 mmHg 66%
    20:00 +1°C° 0 mm 1 m/s 730 mmHg 68%
    21:00 +1°C° 0 mm 1 m/s 730 mmHg 70%
    22:00 +1°C° 0,1 mm 1 m/s 731 mmHg 71%
    23:00 +1°C° 0,1 mm 1 m/s 731 mmHg 72%

    23 Ianuarie, Luni

    Timp Temperatura Precipitaţii Vânt Presiune Umiditate
    00:00 +1°C° 0,1 mm 1 m/s 732 mmHg 73%
    01:00 0°C° 0,3 mm 1 m/s 732 mmHg 77%
    02:00 0°C° 0,3 mm 1 m/s 733 mmHg 81%
    03:00 0°C° 0,3 mm 1 m/s 734 mmHg 85%
    04:00 0°C° 0,4 mm 1 m/s 734 mmHg 84%
    05:00 -3°C° 0,4 mm 2 m/s 735 mmHg 83%
    06:00 -3°C° 0,4 mm 2 m/s 736 mmHg 83%
    07:00 -3°C° 0 mm 2 m/s 737 mmHg 78%
    08:00 -4°C° 0 mm 3 m/s 738 mmHg 74%
    09:00 -2°C° 0 mm 3 m/s 738 mmHg 69%
    10:00 -1°C° 0 mm 3 m/s 738 mmHg 65%
    11:00 -1°C° 0 mm 2 m/s 738 mmHg 61%
    12:00 +1°C° 0 mm 2 m/s 738 mmHg 57%
    13:00 +1°C° 0 mm 2 m/s 738 mmHg 58%
    14:00 +2°C° 0 mm 2 m/s 738 mmHg 58%
    15:00 +2°C° 0 mm 2 m/s 738 mmHg 58%
    16:00 -1°C° 0 mm 2 m/s 738 mmHg 66%
    17:00 -3°C° 0 mm 2 m/s 738 mmHg 74%
    18:00 -6°C° 0 mm 2 m/s 738 mmHg 82%
    19:00 -6°C° 0 mm 2 m/s 739 mmHg 85%
    20:00 -6°C° 0 mm 2 m/s 739 mmHg 87%
    21:00 -7°C° 0 mm 2 m/s 739 mmHg 90%
    22:00 -6°C° 0 mm 1 m/s 739 mmHg 90%
    23:00 -6°C° 0 mm 1 m/s 739 mmHg 91%
    Arată mai mult